Weather History for Gainesville, TX

Change the Weather History Date:

Saturday, November 10, 2012

  Actual Average (KDTO) Record (KDTO)
Temperature  
Mean Temperature 70 °F -  
Max Temperature 77 °F 63 °F 81 °F (1999)
Min Temperature 62 °F 45 °F 30 °F (1997)
Cooling Degree Days 4    
Growing Degree Days 20 (Base 50)    
Moisture  
Dew Point 58 °F    
Average Humidity 71    
Maximum Humidity 88    
Minimum Humidity 47    
Precipitation  
Precipitation 0.00 in - - ()
Sea Level Pressure  
Sea Level Pressure 29.90 in    
Wind  
Wind Speed 19 mph (SSE)    
Max Wind Speed 26 mph    
Max Gust Speed 40 mph    
Visibility 10 miles    
Events      
Averages and records for this station are not official NWS values.
T = Trace of Precipitation, MM = Missing Value Source: NWS Daily Summary

Daily Weather History Graph

Daily Weather History Graph

Search for Another Location

Airport:

Trip Planner

Search our weather history database for the weather conditions in past years. The results will help you decide how hot, cold, wet, or windy it might be!

Date:

Astronomy

Nov. 10, 2012 Rise Set
Actual Time 6:56 AM CST 5:28 PM CST
Civil Twilight 6:30 AM CST 5:54 PM CST
Nautical Twilight 6:00 AM CST 6:24 PM CST
Astronomical Twilight 5:30 AM CST 6:54 PM CST
Moon 3:12 AM CST (11/10) 3:08 PM CST (11/10)
Length of Visible Light 11h 24m
Length of Day
10h 32m
Waning Crescent, 14% of the Moon is Illuminated
Nov 10
Waning Crescent
Nov 13
New
Nov 20
First Quarter
Nov 28
Full
Dec 6
Last Quarter

Hourly Weather History & Observations

Time (CST) Temp. Dew Point Humidity Pressure Visibility Wind Dir Wind Speed Gust Speed Precip Events Conditions
12:15 AM 68.0 °F 53.6 °F 60% 29.96 in 10.0 mi South 18.4 mph 23.0 mph N/A   Clear
12:35 AM 68.0 °F 55.4 °F 64% 29.96 in 10.0 mi South 19.6 mph 25.3 mph N/A   Clear
12:55 AM 64.4 °F 55.4 °F 73% 29.96 in 10.0 mi SSE 18.4 mph 25.3 mph N/A   Clear
1:15 AM 64.4 °F 55.4 °F 73% 29.96 in 10.0 mi SSE 17.3 mph 24.2 mph N/A   Clear
1:35 AM 64.4 °F 55.4 °F 73% 29.96 in 10.0 mi SSE 17.3 mph 23.0 mph N/A   Clear
1:55 AM 64.4 °F 57.2 °F 77% 29.96 in 10.0 mi SSE 16.1 mph - N/A   Clear
2:15 AM 64.4 °F 59.0 °F 83% 29.96 in 10.0 mi SSE 20.7 mph 26.5 mph N/A   Clear
2:35 AM 64.4 °F 59.0 °F 83% 29.95 in 10.0 mi SSE 17.3 mph 21.9 mph N/A   Clear
2:55 AM 64.4 °F 60.8 °F 88% 29.95 in 10.0 mi South 19.6 mph 25.3 mph N/A   Clear
3:15 AM 64.4 °F 60.8 °F 88% 29.95 in 10.0 mi SSE 16.1 mph 20.7 mph N/A   Clear
3:35 AM 64.4 °F 60.8 °F 88% 29.95 in 10.0 mi SSE 15.0 mph 18.4 mph N/A   Clear
4:15 AM 62.6 °F 59.0 °F 88% 29.94 in 10.0 mi SSE 12.7 mph - N/A   Clear
4:35 AM 62.6 °F 59.0 °F 88% 29.95 in 10.0 mi SSE 13.8 mph - N/A   Scattered Clouds
4:55 AM 62.6 °F 59.0 °F 88% 29.95 in 10.0 mi SSE 12.7 mph - N/A   Mostly Cloudy
5:15 AM 62.6 °F 59.0 °F 88% 29.96 in 10.0 mi SSE 15.0 mph - N/A   Scattered Clouds
5:35 AM 62.6 °F 59.0 °F 88% 29.96 in 10.0 mi SSE 16.1 mph - N/A   Mostly Cloudy
5:55 AM 62.6 °F 59.0 °F 88% 29.96 in 10.0 mi SSE 16.1 mph 21.9 mph N/A   Scattered Clouds
6:15 AM 62.6 °F 59.0 °F 88% 29.96 in 10.0 mi SSE 15.0 mph 21.9 mph N/A   Mostly Cloudy
6:35 AM 64.4 °F 60.8 °F 88% 29.96 in 10.0 mi SSE 16.1 mph 23.0 mph N/A   Overcast
6:55 AM 64.4 °F 60.8 °F 88% 29.97 in 10.0 mi SSE 18.4 mph 25.3 mph N/A   Overcast
7:15 AM 62.6 °F 59.0 °F 88% 29.97 in 10.0 mi SSE 16.1 mph 21.9 mph N/A   Mostly Cloudy
7:35 AM 62.6 °F 59.0 °F 88% 29.97 in 10.0 mi SSE 19.6 mph 25.3 mph N/A   Mostly Cloudy
7:55 AM 64.4 °F 60.8 °F 88% 29.98 in 10.0 mi SSE 18.4 mph 23.0 mph N/A   Scattered Clouds
8:15 AM 64.4 °F 60.8 °F 88% 29.98 in 10.0 mi SSE 20.7 mph 28.8 mph N/A   Mostly Cloudy
8:35 AM 64.4 °F 60.8 °F 88% 29.98 in 10.0 mi SSE 19.6 mph 26.5 mph N/A   Mostly Cloudy
8:55 AM 64.4 °F 59.0 °F 83% 29.98 in 10.0 mi SSE 23.0 mph 27.6 mph N/A   Overcast
9:15 AM 64.4 °F 59.0 °F 83% 29.98 in 10.0 mi SSE 18.4 mph 24.2 mph N/A   Overcast
9:35 AM 64.4 °F 59.0 °F 83% 29.99 in 10.0 mi SSE 20.7 mph 26.5 mph N/A   Overcast
9:55 AM 64.4 °F 59.0 °F 83% 29.98 in 10.0 mi SSE 20.7 mph 25.3 mph N/A   Overcast
10:15 AM 68.0 °F 60.8 °F 78% 29.98 in 10.0 mi SSE 17.3 mph 21.9 mph N/A   Overcast
10:35 AM 68.0 °F 59.0 °F 73% 29.98 in 10.0 mi South 19.6 mph 25.3 mph N/A   Overcast
10:55 AM 68.0 °F 59.0 °F 73% 29.97 in 10.0 mi South 17.3 mph 26.5 mph N/A   Overcast
11:15 AM 69.8 °F 60.8 °F 73% 29.96 in 10.0 mi South 24.2 mph 32.2 mph N/A   Overcast
11:35 AM 69.8 °F 57.2 °F 64% 29.95 in 10.0 mi South 26.5 mph 40.3 mph N/A   Overcast
11:55 AM 71.6 °F 59.0 °F 64% 29.93 in 10.0 mi South 25.3 mph 39.1 mph N/A   Overcast
12:15 PM 71.6 °F 59.0 °F 64% 29.91 in 10.0 mi SSE 26.5 mph 35.7 mph N/A   Mostly Cloudy
12:35 PM 71.6 °F 57.2 °F 60% 29.90 in 10.0 mi South 25.3 mph 35.7 mph N/A   Mostly Cloudy
12:55 PM 75.2 °F 59.0 °F 57% 29.89 in 10.0 mi SSE 25.3 mph 36.8 mph N/A   Scattered Clouds
1:15 PM 75.2 °F 57.2 °F 53% 29.88 in 10.0 mi South 26.5 mph 32.2 mph N/A   Scattered Clouds
1:35 PM 75.2 °F 57.2 °F 53% 29.87 in 10.0 mi South 25.3 mph 34.5 mph N/A   Clear
1:55 PM 75.2 °F 55.4 °F 50% 29.86 in 10.0 mi SSE 19.6 mph 31.1 mph N/A   Clear
2:15 PM 75.2 °F 55.4 °F 50% 29.85 in 10.0 mi SSE 24.2 mph 36.8 mph N/A   Clear
2:35 PM 77.0 °F 55.4 °F 47% 29.84 in 10.0 mi SSE 23.0 mph 32.2 mph N/A   Clear
2:55 PM 77.0 °F 55.4 °F 47% 29.83 in 10.0 mi SSE 20.7 mph 29.9 mph N/A   Scattered Clouds
3:15 PM 77.0 °F 55.4 °F 47% 29.83 in 10.0 mi SSE 24.2 mph 34.5 mph N/A   Clear
3:35 PM 77.0 °F 55.4 °F 47% 29.83 in 10.0 mi SSE 23.0 mph 36.8 mph N/A   Clear
3:55 PM 75.2 °F 55.4 °F 50% 29.82 in 10.0 mi SSE 23.0 mph 32.2 mph N/A   Clear
4:15 PM 75.2 °F 57.2 °F 53% 29.82 in 10.0 mi SSE 26.5 mph 33.4 mph N/A   Clear
4:35 PM 75.2 °F 57.2 °F 53% 29.83 in 10.0 mi SSE 19.6 mph 33.4 mph N/A   Clear
4:55 PM 73.4 °F 57.2 °F 57% 29.82 in 10.0 mi SSE 26.5 mph 33.4 mph N/A   Clear
5:15 PM 71.6 °F 55.4 °F 57% 29.81 in 10.0 mi SSE 21.9 mph 28.8 mph N/A   Clear
5:35 PM 71.6 °F 57.2 °F 60% 29.82 in 10.0 mi SSE 18.4 mph 25.3 mph N/A   Clear
5:55 PM 71.6 °F 59.0 °F 64% 29.83 in 10.0 mi SSE 18.4 mph 27.6 mph N/A   Clear
6:15 PM 71.6 °F 57.2 °F 60% 29.83 in 10.0 mi SSE 18.4 mph 25.3 mph N/A   Clear
6:35 PM 69.8 °F 55.4 °F 60% 29.84 in 10.0 mi SSE 18.4 mph 26.5 mph N/A   Clear
6:55 PM 69.8 °F 57.2 °F 64% 29.84 in 10.0 mi SSE 16.1 mph 23.0 mph N/A   Clear
7:15 PM 69.8 °F 55.4 °F 60% 29.83 in 10.0 mi SSE 18.4 mph 26.5 mph N/A   Clear
7:35 PM 69.8 °F 55.4 °F 60% 29.83 in 10.0 mi SSE 19.6 mph 26.5 mph N/A   Clear
7:55 PM 69.8 °F 57.2 °F 64% 29.83 in 10.0 mi SSE 19.6 mph 26.5 mph N/A   Clear
8:15 PM 69.8 °F 57.2 °F 64% 29.83 in 10.0 mi SSE 20.7 mph 31.1 mph N/A   Clear
8:35 PM 69.8 °F 57.2 °F 64% 29.84 in 10.0 mi SSE 19.6 mph 26.5 mph N/A   Clear
8:55 PM 69.8 °F 59.0 °F 68% 29.84 in 10.0 mi SSE 20.7 mph 27.6 mph N/A   Clear
9:15 PM 69.8 °F 59.0 °F 68% 29.84 in 10.0 mi SSE 20.7 mph 28.8 mph N/A   Clear
9:35 PM 69.8 °F 59.0 °F 68% 29.84 in 10.0 mi SSE 21.9 mph 31.1 mph N/A   Clear
9:55 PM 69.8 °F 59.0 °F 68% 29.85 in 10.0 mi SSE 19.6 mph 26.5 mph N/A   Clear
10:15 PM 69.8 °F 59.0 °F 68% 29.84 in 10.0 mi SSE 19.6 mph 28.8 mph N/A   Clear
10:35 PM 69.8 °F 60.8 °F 73% 29.85 in 10.0 mi SSE 17.3 mph 26.5 mph N/A   Clear
10:55 PM 69.8 °F 60.8 °F 73% 29.85 in 10.0 mi SSE 17.3 mph 23.0 mph N/A   Clear
11:15 PM 69.8 °F 60.8 °F 73% 29.84 in 10.0 mi SSE 21.9 mph 25.3 mph N/A   Clear
11:35 PM 69.8 °F 60.8 °F 73% 29.82 in 10.0 mi SSE 20.7 mph 28.8 mph N/A   Clear
11:55 PM 69.8 °F 60.8 °F 73% 29.82 in 10.0 mi SSE 20.7 mph 31.1 mph N/A   Clear